Tracking 31027 objects as of 19-Jul-2025
HD Live streaming from Space Station
objects crossing your sky now

COSMOS 839 DEB

Track COSMOS 839 DEB now!
10-day predictions


NORAD ID: 10464
Int'l Code: 1976-067AH
Perigee: 922.3 km
Apogee: 2,048.2 km
Inclination: 65.8 °
Period: 115.5 minutes
Semi major axis: 7856 km
RCS: 0.0225 m2 (small)
Launch date: July 8, 1976
Source: Commonwealth of Independent States (former USSR) (CIS)
Launch site: PLESETSK MISSILE AND SPACE COMPLEX (PKMTR)

Note: This is SATELLITE DEBRIS
Your satellite tracking list
Your tracking list is empty




NASA's NSSDC Master Catalog

Two Line Element Set (TLE):
1 10464U 76067AH  25199.46473565  .00000064  00000-0  32974-3 0  9995
2 10464  65.8312 145.2865 0716563 351.7406  94.0065 12.46751448225596
Source of the keplerian elements: AFSPC